| time (UTC) | temp C | wind direction | speed KPH | gust KPH | rain 1hr cm | rain 24hr cm | rain mn cm | humidity % | barometer mb |
| 20260504044518 | 9 | 28 | 3.2 | 9.7 | 0.00 | 0.00 | 0.00 | 68 | 1012.4 |
| 20260504044007 | 9 | 37 | 4.8 | 9.7 | 0.00 | 0.00 | 0.00 | 67 | 1012.4 |
| 20260504043507 | 9 | 42 | 3.2 | 8.0 | 0.00 | 0.00 | 0.00 | 67 | 1012.4 |
| 20260504043038 | 9 | 31 | 3.2 | 9.7 | 0.00 | 0.00 | 0.00 | 67 | 1012.4 |
| 20260504042504 | 9 | 19 | 3.2 | 11.3 | 0.00 | 0.00 | 0.00 | 66 | 1012.4 |
| 20260504042008 | 10 | 40 | 4.8 | 11.3 | 0.00 | 0.00 | 0.00 | 66 | 1012.4 |
| 20260504041535 | 10 | 42 | 3.2 | 9.7 | 0.00 | 0.00 | 0.00 | 66 | 1012.4 |
| 20260504041009 | 10 | 59 | 4.8 | 9.7 | 0.00 | 0.00 | 0.00 | 66 | 1012.5 |
| 20260504040509 | 10 | 33 | 4.8 | 12.9 | 0.00 | 0.00 | 0.00 | 66 | 1012.7 |
| 20260504040018 | 10 | 58 | 6.4 | 12.9 | 0.00 | 0.00 | 0.00 | 66 | 1012.7 |
| 20260504035508 | 10 | 42 | 4.8 | 11.3 | 0.00 | 0.00 | 0.00 | 66 | 1012.7 |
| 20260504035005 | 10 | 15 | 4.8 | 12.9 | 0.00 | 0.00 | 0.00 | 66 | 1012.7 |
| 20260504034519 | 10 | 28 | 4.8 | 12.9 | 0.00 | 0.00 | 0.00 | 66 | 1012.8 |
| 20260504034010 | 10 | 51 | 4.8 | 12.9 | 0.00 | 0.00 | 0.00 | 66 | 1012.8 |
| 20260504033506 | 10 | 69 | 6.4 | 12.9 | 0.00 | 0.00 | 0.00 | 66 | 1012.8 |
| 20260504033019 | 10 | 65 | 6.4 | 12.9 | 0.00 | 0.00 | 0.00 | 66 | 1012.8 |
| 20260504032507 | 10 | 50 | 4.8 | 9.7 | 0.00 | 0.00 | 0.00 | 65 | 1012.7 |
| 20260504032011 | 10 | 28 | 4.8 | 8.0 | 0.00 | 0.00 | 0.00 | 65 | 1012.8 |
| 20260504031526 | 10 | 50 | 4.8 | 12.9 | 0.00 | 0.00 | 0.00 | 65 | 1012.8 |
| 20260504031006 | 10 | 59 | 6.4 | 12.9 | 0.00 | 0.00 | 0.00 | 65 | 1012.9 |
| 20260504030512 | 10 | 42 | 4.8 | 11.3 | 0.00 | 0.00 | 0.00 | 65 | 1012.8 |
| 20260504030032 | 10 | 76 | 4.8 | 12.9 | 0.00 | 0.00 | 0.00 | 64 | 1012.9 |
| 20260504025509 | 10 | 63 | 8.0 | 14.5 | 0.00 | 0.00 | 0.00 | 64 | 1012.9 |
| 20260504025006 | 10 | 82 | 8.0 | 16.1 | 0.00 | 0.00 | 0.00 | 64 | 1013.0 |
| 20260504024521 | 10 | 57 | 6.4 | 25.7 | 0.00 | 0.00 | 0.00 | 63 | 1013.0 |
| 20260504024008 | 10 | 72 | 8.0 | 25.7 | 0.00 | 0.00 | 0.00 | 63 | 1013.1 |
| 20260504023507 | 10 | 65 | 14.5 | 25.7 | 0.00 | 0.00 | 0.00 | 63 | 1013.2 |
| 20260504023003 | 10 | 77 | 9.7 | 25.7 | 0.00 | 0.00 | 0.00 | 63 | 1013.3 |
| 20260504022502 | 10 | 74 | 14.5 | 25.7 | 0.00 | 0.00 | 0.00 | 62 | 1013.3 |
| 20260504022002 | 10 | 76 | 6.4 | 19.3 | 0.00 | 0.00 | 0.00 | 61 | 1013.4 |
| 20260504021503 | 10 | 83 | 9.7 | 19.3 | 0.00 | 0.00 | 0.00 | 60 | 1013.3 |
| 20260504021001 | 10 | 49 | 11.3 | 22.5 | 0.00 | 0.00 | 0.00 | 60 | 1013.2 |
| 20260504020501 | 10 | 76 | 9.7 | 24.1 | 0.00 | 0.00 | 0.00 | 59 | 1013.2 |
| 20260504020003 | 10 | 98 | 11.3 | 32.2 | 0.00 | 0.00 | 0.00 | 58 | 1013.2 |
| 20260504015503 | 10 | 74 | 14.5 | 32.2 | 0.00 | 0.00 | 0.00 | 57 | 1013.1 |
| 20260504015004 | 10 | 80 | 9.7 | 17.7 | 0.00 | 0.00 | 0.00 | 57 | 1012.9 |
| 20260504014505 | 10 | 59 | 6.4 | 14.5 | 0.00 | 0.00 | 0.00 | 57 | 1012.9 |
| 20260504014004 | 10 | 36 | 6.4 | 14.5 | 0.00 | 0.00 | 0.00 | 56 | 1012.8 |
| 20260504013502 | 10 | 47 | 4.8 | 12.9 | 0.00 | 0.00 | 0.00 | 56 | 1012.6 |
| 20260504013004 | 10 | 55 | 4.8 | 14.5 | 0.00 | 0.00 | 0.00 | 56 | 1012.7 |
| 20260504012502 | 10 | 50 | 8.0 | 14.5 | 0.00 | 0.00 | 0.00 | 55 | 1012.7 |
| 20260504012003 | 10 | 61 | 6.4 | 14.5 | 0.00 | 0.00 | 0.00 | 55 | 1012.7 |
| 20260504011510 | 10 | 43 | 6.4 | 14.5 | 0.00 | 0.00 | 0.00 | 56 | 1012.7 |
| 20260504011001 | 10 | 36 | 6.4 | 14.5 | 0.00 | 0.00 | 0.00 | 55 | 1012.7 |
| 20260504010503 | 10 | 63 | 6.4 | 11.3 | 0.00 | 0.00 | 0.00 | 55 | 1012.8 |
| 20260504010003 | 10 | 26 | 6.4 | 11.3 | 0.00 | 0.00 | 0.00 | 55 | 1012.8 |
| 20260504005503 | 11 | 53 | 4.8 | 11.3 | 0.00 | 0.00 | 0.00 | 55 | 1012.7 |
| 20260504005004 | 11 | 42 | 4.8 | 14.5 | 0.00 | 0.00 | 0.00 | 55 | 1012.8 |
| 20260504004503 | 11 | 57 | 6.4 | 14.5 | 0.00 | 0.00 | 0.00 | 54 | 1012.7 |
| 20260504004002 | 11 | 36 | 6.4 | 14.5 | 0.00 | 0.00 | 0.00 | 54 | 1012.8 |
| 20260504003506 | 11 | 62 | 6.4 | 14.5 | 0.00 | 0.00 | 0.00 | 53 | 1012.8 |
| 20260504003005 | 11 | 55 | 8.0 | 14.5 | 0.00 | 0.00 | 0.00 | 53 | 1012.7 |
| 20260504002502 | 11 | 32 | 6.4 | 14.5 | 0.00 | 0.00 | 0.00 | 54 | 1012.7 |
| 20260504002004 | 12 | 38 | 6.4 | 17.7 | 0.00 | 0.00 | 0.00 | 53 | 1012.8 |
| 20260504001504 | 12 | 49 | 8.0 | 17.7 | 0.00 | 0.00 | 0.00 | 52 | 1012.8 |
| 20260504001002 | 12 | 51 | 8.0 | 16.1 | 0.00 | 0.00 | 0.00 | 51 | 1012.8 |
| 20260504000502 | 12 | 57 | 8.0 | 16.1 | 0.00 | 0.00 | 0.00 | 51 | 1012.8 |
| 20260504000004 | 12 | 74 | 8.0 | 16.1 | 0.00 | 0.00 | 0.00 | 51 | 1012.8 |
| 20260503235502 | 12 | 66 | 8.0 | 16.1 | 0.00 | 0.00 | 0.00 | 50 | 1012.9 |
| 20260503235003 | 12 | 88 | 4.8 | 16.1 | 0.00 | 0.00 | 0.00 | 51 | 1013.0 |
| 20260503234505 | 12 | 105 | 6.4 | 17.7 | 0.00 | 0.00 | 0.00 | 50 | 1013.0 |
| 20260503234003 | 12 | 74 | 11.3 | 20.9 | 0.00 | 0.00 | 0.00 | 48 | 1013.0 |
| 20260503233503 | 13 | 86 | 8.0 | 24.1 | 0.00 | 0.00 | 0.00 | 49 | 1013.0 |
| 20260503233003 | 13 | 64 | 14.5 | 27.4 | 0.00 | 0.00 | 0.00 | 47 | 1013.0 |
| 20260503232505 | 13 | 41 | 9.7 | 27.4 | 0.00 | 0.00 | 0.00 | 47 | 1013.0 |
| 20260503232003 | 13 | 44 | 12.9 | 25.7 | 0.00 | 0.00 | 0.00 | 47 | 1013.1 |
| 20260503231503 | 13 | 116 | 11.3 | 29.0 | 0.00 | 0.00 | 0.00 | 47 | 1013.1 |
| 20260503231003 | 13 | 70 | 9.7 | 29.0 | 0.00 | 0.00 | 0.00 | 47 | 1013.1 |
| 20260503230503 | 13 | 71 | 14.5 | 29.0 | 0.00 | 0.00 | 0.00 | 45 | 1013.0 |
| 20260503230004 | 14 | 110 | 12.9 | 29.0 | 0.00 | 0.00 | 0.00 | 45 | 1013.0 |
| 20260503225505 | 14 | 38 | 16.1 | 27.4 | 0.00 | 0.00 | 0.00 | 46 | 1012.9 |
| 20260503225005 | 14 | 76 | 16.1 | 33.8 | 0.00 | 0.00 | 0.00 | 46 | 1013.0 |
| 20260503224506 | 13 | 57 | 16.1 | 33.8 | 0.00 | 0.00 | 0.00 | 46 | 1013.0 |
| 20260503224002 | 13 | 44 | 17.7 | 40.2 | 0.00 | 0.00 | 0.00 | 46 | 1013.0 |
| 20260503223503 | 13 | 83 | 17.7 | 40.2 | 0.00 | 0.00 | 0.00 | 46 | 1012.9 |
| 20260503223008 | 13 | 65 | 12.9 | 24.1 | 0.00 | 0.00 | 0.00 | 46 | 1013.1 |
| 20260503222503 | 13 | 131 | 12.9 | 27.4 | 0.00 | 0.00 | 0.00 | 47 | 1013.1 |
| 20260503222003 | 13 | 101 | 12.9 | 27.4 | 0.00 | 0.00 | 0.00 | 47 | 1013.2 |
| 20260503221503 | 14 | 59 | 12.9 | 29.0 | 0.00 | 0.00 | 0.00 | 46 | 1013.1 |
| 20260503221003 | 14 | 69 | 17.7 | 29.0 | 0.00 | 0.00 | 0.00 | 45 | 1013.1 |
| 20260503220503 | 14 | 98 | 14.5 | 29.0 | 0.00 | 0.00 | 0.00 | 46 | 1013.1 |
| 20260503220007 | 14 | 40 | 14.5 | 29.0 | 0.00 | 0.00 | 0.00 | 44 | 1013.2 |
| 20260503215502 | 14 | 82 | 16.1 | 32.2 | 0.00 | 0.00 | 0.00 | 44 | 1013.1 |
| 20260503215002 | 15 | 101 | 19.3 | 32.2 | 0.00 | 0.00 | 0.00 | 43 | 1013.1 |
| 20260503214504 | 15 | 65 | 12.9 | 25.7 | 0.00 | 0.00 | 0.00 | 46 | 1013.2 |
| 20260503214003 | 15 | 82 | 9.7 | 30.6 | 0.00 | 0.00 | 0.00 | 44 | 1013.2 |
| 20260503213506 | 15 | 102 | 17.7 | 32.2 | 0.00 | 0.00 | 0.00 | 44 | 1013.2 |
| 20260503213006 | 14 | 114 | 17.7 | 32.2 | 0.00 | 0.00 | 0.00 | 44 | 1013.2 |
| 20260503212504 | 14 | 104 | 14.5 | 33.8 | 0.00 | 0.00 | 0.00 | 44 | 1013.2 |
| 20260503212004 | 14 | 87 | 12.9 | 37.0 | 0.00 | 0.00 | 0.00 | 44 | 1013.2 |
| 20260503211506 | 14 | 75 | 17.7 | 38.6 | 0.00 | 0.00 | 0.00 | 45 | 1013.2 |
| 20260503211003 | 14 | 55 | 12.9 | 38.6 | 0.00 | 0.00 | 0.00 | 45 | 1013.2 |
| 20260503210507 | 15 | 69 | 16.1 | 32.2 | 0.00 | 0.00 | 0.00 | 43 | 1013.3 |
| 20260503210006 | 15 | 63 | 16.1 | 29.0 | 0.00 | 0.00 | 0.00 | 44 | 1013.2 |
| 20260503205503 | 15 | 40 | 19.3 | 32.2 | 0.00 | 0.00 | 0.00 | 43 | 1013.1 |
| 20260503205004 | 15 | 59 | 20.9 | 32.2 | 0.00 | 0.00 | 0.00 | 43 | 1013.2 |
| 20260503204516 | 15 | 46 | 17.7 | 32.2 | 0.00 | 0.00 | 0.00 | 44 | 1013.1 |
| 20260503204004 | 15 | 101 | 14.5 | 32.2 | 0.00 | 0.00 | 0.00 | 42 | 1013.2 |
| 20260503203504 | 15 | 69 | 14.5 | 30.6 | 0.00 | 0.00 | 0.00 | 43 | 1013.2 |
| 20260503203007 | 15 | 90 | 17.7 | 37.0 | 0.00 | 0.00 | 0.00 | 46 | 1013.3 |
| 20260503202503 | 15 | 57 | 19.3 | 37.0 | 0.00 | 0.00 | 0.00 | 44 | 1013.3 |
| 20260503202004 | 15 | 81 | 14.5 | 35.4 | 0.00 | 0.00 | 0.00 | 44 | 1013.3 |
| 20260503201509 | 15 | 50 | 19.3 | 35.4 | 0.00 | 0.00 | 0.00 | 43 | 1013.5 |
| 20260503201004 | 15 | 53 | 16.1 | 30.6 | 0.00 | 0.00 | 0.00 | 43 | 1013.5 |
| 20260503200504 | 16 | 50 | 14.5 | 32.2 | 0.00 | 0.00 | 0.00 | 41 | 1013.5 |
| 20260503200008 | 16 | 97 | 19.3 | 32.2 | 0.00 | 0.00 | 0.00 | 44 | 1013.7 |
| 20260503195504 | 15 | 64 | 16.1 | 33.8 | 0.00 | 0.00 | 0.00 | 45 | 1013.8 |
| 20260503195004 | 15 | 42 | 19.3 | 33.8 | 0.00 | 0.00 | 0.00 | 47 | 1014.0 |
| 20260503194508 | 14 | 96 | 16.1 | 29.0 | 0.00 | 0.00 | 0.00 | 44 | 1014.0 |
| 20260503194005 | 15 | 49 | 11.3 | 32.2 | 0.00 | 0.00 | 0.00 | 44 | 1014.1 |
| 20260503193505 | 15 | 56 | 20.9 | 32.2 | 0.00 | 0.00 | 0.00 | 44 | 1014.1 |
| 20260503193013 | 15 | 92 | 12.9 | 30.6 | 0.00 | 0.00 | 0.00 | 43 | 1014.3 |
| 20260503192505 | 15 | 32 | 14.5 | 32.2 | 0.00 | 0.00 | 0.00 | 44 | 1014.4 |
| 20260503192004 | 15 | 108 | 19.3 | 32.2 | 0.00 | 0.00 | 0.00 | 44 | 1014.3 |
| 20260503191527 | 15 | 57 | 16.1 | 32.2 | 0.00 | 0.00 | 0.00 | 45 | 1014.3 |
| 20260503191004 | 15 | 65 | 19.3 | 32.2 | 0.00 | 0.00 | 0.00 | 47 | 1014.4 |
| 20260503190505 | 15 | 117 | 12.9 | 32.2 | 0.00 | 0.00 | 0.00 | 42 | 1014.5 |
| 20260503190008 | 15 | 105 | 14.5 | 35.4 | 0.00 | 0.00 | 0.00 | 45 | 1014.6 |
| 20260503185504 | 15 | 35 | 17.7 | 35.4 | 0.00 | 0.00 | 0.00 | 41 | 1014.7 |
| 20260503185005 | 15 | 117 | 17.7 | 32.2 | 0.00 | 0.00 | 0.00 | 41 | 1014.7 |
| 20260503184510 | 15 | 102 | 12.9 | 25.7 | 0.00 | 0.00 | 0.00 | 46 | 1014.9 |
| 20260503184006 | 15 | 53 | 9.7 | 29.0 | 0.00 | 0.00 | 0.00 | 45 | 1014.9 |
| 20260503183508 | 15 | 101 | 14.5 | 29.0 | 0.00 | 0.00 | 0.00 | 42 | 1014.9 |
| 20260503183009 | 15 | 98 | 16.1 | 27.4 | 0.00 | 0.00 | 0.00 | 41 | 1014.9 |
| 20260503182503 | 15 | 54 | 16.1 | 30.6 | 0.00 | 0.00 | 0.00 | 43 | 1014.9 |
| 20260503182005 | 15 | 73 | 14.5 | 32.2 | 0.00 | 0.00 | 0.00 | 45 | 1015.0 |
| 20260503181514 | 14 | 73 | 16.1 | 33.8 | 0.00 | 0.00 | 0.00 | 46 | 1015.0 |
| 20260503181005 | 15 | 101 | 19.3 | 33.8 | 0.00 | 0.00 | 0.00 | 43 | 1015.0 |
| 20260503180507 | 15 | 50 | 11.3 | 25.7 | 0.00 | 0.00 | 0.00 | 45 | 1015.1 |
| 20260503180014 | 15 | 109 | 12.9 | 29.0 | 0.00 | 0.00 | 0.00 | 47 | 1015.2 |
| 20260503175507 | 15 | 113 | 16.1 | 29.0 | 0.00 | 0.00 | 0.00 | 46 | 1015.2 |
| 20260503175002 | 15 | 40 | 16.1 | 32.2 | 0.00 | 0.00 | 0.00 | 45 | 1015.2 |
| 20260503174513 | 14 | 129 | 12.9 | 32.2 | 0.00 | 0.00 | 0.00 | 49 | 1015.3 |
| 20260503174006 | 15 | 79 | 11.3 | 30.6 | 0.00 | 0.00 | 0.00 | 47 | 1015.3 |
| 20260503173503 | 15 | 111 | 19.3 | 30.6 | 0.00 | 0.00 | 0.00 | 45 | 1015.3 |
| 20260503173011 | 15 | 88 | 11.3 | 29.0 | 0.00 | 0.00 | 0.00 | 49 | 1015.4 |
| 20260503172507 | 15 | 63 | 17.7 | 29.0 | 0.00 | 0.00 | 0.00 | 47 | 1015.4 |
| 20260503172006 | 14 | 36 | 9.7 | 32.2 | 0.00 | 0.00 | 0.00 | 50 | 1015.6 |
| 20260503171516 | 14 | 114 | 20.9 | 32.2 | 0.00 | 0.00 | 0.00 | 47 | 1015.8 |
| 20260503171003 | 14 | 60 | 16.1 | 30.6 | 0.00 | 0.00 | 0.00 | 52 | 1015.7 |
| 20260503170503 | 13 | 61 | 12.9 | 27.4 | 0.00 | 0.00 | 0.00 | 49 | 1015.8 |
| 20260503151002 | 10 | 131 | 11.3 | 29.0 | 0.00 | 0.00 | 0.00 | 55 | 1016.9 |
| 20260503150505 | 10 | 73 | 11.3 | 29.0 | 0.00 | 0.00 | 0.00 | 55 | 1017.0 |
| 20260503131003 | 7 | 60 | 8.0 | 16.1 | 0.00 | 0.00 | 0.00 | 66 | 1017.4 |
| 20260503130503 | 6 | 84 | 6.4 | 16.1 | 0.00 | 0.00 | 0.00 | 68 | 1017.3 |
| 20260503110510 | 0 | 61 | 4.8 | 8.0 | 0.00 | 0.00 | 0.00 | 92 | 1016.5 |
| 20260503090508 | 0 | 82 | 0.0 | 3.2 | 0.00 | 0.00 | 0.00 | 90 | 1016.2 |
| 20260503081524 | 0 | 84 | 1.6 | 4.8 | 0.00 | 0.03 | 0.00 | 89 | 1016.2 |
| 20260503081004 | 0 | 81 | 1.6 | 4.8 | 0.00 | 0.03 | 0.00 | 89 | 1016.2 |
| 20260503080503 | 0 | 81 | 1.6 | 4.8 | 0.00 | 0.03 | 0.00 | 89 | 1016.2 |
| 20260503072502 | 1 | 84 | 1.6 | 4.8 | 0.00 | 0.03 | 0.00 | 86 | 1016.2 |
| 20260503072004 | 1 | 84 | 1.6 | 4.8 | 0.00 | 0.03 | 0.00 | 86 | 1016.2 |
| 20260503071516 | 1 | 80 | 1.6 | 6.4 | 0.00 | 0.03 | 0.00 | 86 | 1016.2 |
| 20260503071004 | 1 | 63 | 3.2 | 6.4 | 0.00 | 0.03 | 0.00 | 86 | 1016.2 |
| 20260503070506 | 1 | 80 | 3.2 | 6.4 | 0.00 | 0.03 | 0.00 | 86 | 1016.1 |
| 20260503055006 | 2 | 85 | 1.6 | 4.8 | 0.00 | 0.05 | 0.00 | 83 | 1016.4 |
| 20260503054523 | 2 | 56 | 1.6 | 4.8 | 0.00 | 0.05 | 0.00 | 82 | 1016.4 |
| 20260503054003 | 2 | 56 | 1.6 | 6.4 | 0.00 | 0.05 | 0.00 | 83 | 1016.4 |
| 20260503053504 | 2 | 80 | 1.6 | 6.4 | 0.00 | 0.05 | 0.00 | 83 | 1016.4 |
| 20260503053026 | 2 | 74 | 1.6 | 6.4 | 0.00 | 0.05 | 0.00 | 83 | 1016.4 |
| 20260503052509 | 2 | 65 | 3.2 | 6.4 | 0.00 | 0.05 | 0.00 | 84 | 1016.4 |
| 20260503052003 | 2 | 76 | 1.6 | 4.8 | 0.00 | 0.05 | 0.00 | 83 | 1016.4 |
| 20260503051511 | 2 | 76 | 1.6 | 4.8 | 0.00 | 0.05 | 0.00 | 83 | 1016.4 |
| 20260503051004 | 2 | 76 | 0.0 | 4.8 | 0.00 | 0.05 | 0.00 | 83 | 1016.5 |
| 20260503050503 | 2 | 76 | 0.0 | 4.8 | 0.00 | 0.05 | 0.00 | 83 | 1016.5 |
| 20260503050013 | 2 | 76 | 1.6 | 4.8 | 0.00 | 0.05 | 0.00 | 83 | 1016.6 |
| 20260503045503 | 2 | 76 | 1.6 | 4.8 | 0.00 | 0.05 | 0.00 | 83 | 1016.6 |
| 20260503045004 | 2 | 91 | 1.6 | 4.8 | 0.00 | 0.05 | 0.00 | 83 | 1016.6 |